Regional Weather Roundup
Issued by NWS

Home | Current Version | Previous Version | Graphics & Text | Print | Product List | Glossary On
Versions: 1 2 3 4 5 6 7 8 9 10 11 12 13 14 15 16 17 18 19 20 21 22 23 24 25 26 27 28 29 30 31 32 33 34 35 36 37 38 39 40 41 42 43 44 45 46 47 48 49 50
000
ASUS43 KOAX 241910
RWRNE

WEATHER ROUNDUP FOR NEBRASKA
NATIONAL WEATHER SERVICE OMAHA NE
200 PM CDT THU JUL 24 2014

NOTES: SATELLITE DATA IS BEING USED TO AUGMENT CLOUD COVER ABOVE
       12000 FEET.
       "FAIR" INDICATES FEW OR NO CLOUDS BELOW 12,000 FEET WITH NO
       SIGNIFICANT WEATHER AND/OR OBSTRUCTIONS TO VISIBILITY.

  * THESE STATIONS DO NOT REPORT WEATHER SUCH AS RAIN...SNOW OR FOG.

NEZ001>004-019>022-054>056-242000-
NEBRASKA PANHANDLE

CITY           SKY/WX    TMP DP  RH WIND       PRES   REMARKS
SCOTTSBLUFF    MOSUNNY   99  53  21 SW9       29.93F HX  96
ALLIANCE       MOSUNNY  102  44  14 W15G23    29.91F HX  98
CHADRON        MOSUNNY  104  51  17 SW14      29.81F HX 101
KIMBALL        MOSUNNY   90  42  18 N6G33     30.02S
SIDNEY         SUNNY    101  46  15 VRB5G17   29.99F HX  97
$$

NEZ057>060-069>072-079>082-242000-
SOUTHWEST NEBRASKA

CITY           SKY/WX    TMP DP  RH WIND       PRES   REMARKS
NORTH PLATTE   SUNNY     93  67  42 S14       29.91F HX  96
IMPERIAL       SUNNY    102  41  12 S25G32    29.92F HX  97
LEXINGTON      SUNNY     89  70  53 S23       29.95F HX  94
MCCOOK         SUNNY     98  67  36 S18G24    29.92F HX 102
OGALLALA       SUNNY     97  55  23 S15G21    29.91F HX  95
$$

NEZ005>010-023>029-035>040-094-242000-
NORTH CENTRAL NEBRASKA

CITY           SKY/WX    TMP DP  RH WIND       PRES   REMARKS
VALENTINE      SUNNY     97  66  36 S26G32    29.81F HX 100
AINSWORTH      SUNNY     89  66  45 S29G35    29.85F HX  92
BROKEN BOW     SUNNY     88  68  51 S23G31    29.94F HX  91
O`NEILL        SUNNY     85  63  47 S28G38    29.91F
ORD            MOSUNNY   84  68  58 S22G32    29.94F
THEDFORD       SUNNY     93  66  40 S21G29    29.89F HX  96
$$

NEZ041-046>049-061>064-073>077-083>087-242000-
SOUTH CENTRAL NEBRASKA

CITY           SKY/WX    TMP DP  RH WIND       PRES   REMARKS
GRAND ISLAND   SUNNY     84  67  56 S22G29    30.00F
AURORA         SUNNY     83  67  59 SE20G26   30.00F
HASTINGS       SUNNY     86  63  45 S18G26    30.00F
HEBRON         SUNNY     85  63  46 SE17G23   30.02F
HOLDREGE       SUNNY     88  67  48 S18G29    29.97F HX  91
KEARNEY *      SUNNY     88  70  55 SE21G30   29.98  HX  92
YORK           SUNNY     82  68  61 SE17G26   30.02F
$$

NEZ011>018-030>034-042>045-242000-
NORTHEAST NEBRASKA

CITY           SKY/WX    TMP DP  RH WIND       PRES   REMARKS
NORFOLK        SUNNY     83  63  50 S23G36    29.96F
ALBION         SUNNY     81  64  56 S24G30    29.97F
BLAIR          MOSUNNY   79  62  55 S15G23    30.03F
COLUMBUS *     SUNNY     66  64  94 S21G28    30.00F
FREMONT        SUNNY     83  61  48 S21G29    30.01F
TEKAMAH        PTSUNNY   82  62  50 S16G25    30.02F
WAYNE          SUNNY     84  64  52 S17G24    30.00R THUNDER
$$

NEZ050>053-065>068-078-088>093-242000-
SOUTHEAST NEBRASKA

CITY           SKY/WX    TMP DP  RH WIND       PRES   REMARKS
LINCOLN        SUNNY     85  61  44 S23G30    30.02F
OMAHA EPPLEY   MOSUNNY   81  60  48 S18G28    30.02F
BEATRICE       SUNNY     82  65  57 SE17G23   30.04F
FALLS CITY     MOSUNNY   82  62  50 SE12G24   30.07F
NEBRASKA CITY  SUNNY     80  61  52 S18G25    30.05F
PLATTSMOUTH    SUNNY     80  59  48 S14G24    30.04F
$$

NEZ044-045-051>053-067-242000-
OMAHA AREA

CITY           SKY/WX    TMP DP  RH WIND       PRES   REMARKS
OMAHA EPPLEY   MOSUNNY   81  60  48 S18G28    30.02F
BLAIR          MOSUNNY   79  62  55 S15G23    30.03F
FREMONT        SUNNY     83  61  48 S21G29    30.01F
MILLARD        SUNNY     80  62  54 S17G23    30.02F
OFFUTT AFB     SUNNY     82  63  52 S20G25    30.03F
PLATTSMOUTH    SUNNY     80  59  48 S14G24    30.04F
WAHOO          FAIR      83  62  48 S17       30.01F
$$


USA.gov is the U.S. government's official web portal to all federal, state and local government web resources and services.